DW6723 Weather Reports


Display with metric or nautical units.
time (UTC)temp
F
wind
direction
speed
MPH
gust
MPH
rain 1hr
in
rain 24hr
in
rain mn
in
humidity
%
barometer
mb
20260505153006 73 232 6.0 15.0 0.00 0.00 0.00 48 1008.5
20260505151508 72 248 7.0 16.0 0.00 0.00 0.00 49 1008.6
20260505124558 65 243 7.0 14.0 0.00 0.00 0.00 57 1009.0
20260505123032 64 284 8.0 16.0 0.00 0.00 0.00 59 1009.0
20260505121531 63 190 6.0 15.0 0.00 0.00 0.00 60 1008.8
20260505120013 63 221 6.0 10.0 0.00 0.00 0.00 61 1008.8
20260505114513 62 191 4.0 13.0 0.00 0.00 0.00 62 1008.8
20260505113057 60 265 5.0 14.0 0.00 0.00 0.00 64 1009.0
20260505111554 59 253 3.0 11.0 0.00 0.00 0.00 66 1009.0
20260505101525 55 248 1.0 7.0 0.00 0.00 0.00 69 1008.9
20260505100100 54 194 1.0 6.0 0.00 0.00 0.00 70 1008.9
20260505100004 54 166 1.0 8.0 0.00 0.00 0.00 70 1008.8
20260505094603 54 198 2.0 5.0 0.00 0.00 0.00 70 1008.9
20260505093044 54 229 2.0 6.0 0.00 0.00 0.00 69 1009.0
20260505091539 54 188 3.0 8.0 0.00 0.00 0.00 69 1009.0
20260505090021 55 264 3.0 7.0 0.00 0.00 0.00 68 1009.1
20260505084531 55 215 4.0 8.0 0.00 0.00 0.00 67 1009.1
20260505083059 55 211 4.0 7.0 0.00 0.00 0.00 66 1009.1
20260505081559 55 213 2.0 8.0 0.00 0.00 0.00 66 1009.2
20260505080043 54 262 1.0 6.0 0.00 0.00 0.00 67 1009.4
20260505074541 55 196 1.0 5.0 0.00 0.00 0.00 66 1009.4
20260505073032 55 211 1.0 4.0 0.00 0.00 0.00 66 1009.5
20260505071520 55 236 1.0 5.0 0.00 0.00 0.00 65 1009.6
20260505070101 56 195 0.0 4.0 0.00 0.00 0.00 63 1009.6
20260505064601 57 210 1.0 4.0 0.00 0.00 0.00 62 1009.6
20260505063108 57 215 2.0 6.0 0.00 0.00 0.00 61 1009.5
20260505061545 57 254 4.0 7.0 0.00 0.00 0.00 60 1009.5
20260505060041 57 266 3.0 7.0 0.00 0.00 0.00 60 1009.5
20260505054541 58 270 4.0 8.0 0.00 0.00 0.00 60 1009.6
20260505053047 58 215 3.0 9.0 0.00 0.00 0.00 59 1009.6
20260505051538 58 251 6.0 12.0 0.00 0.00 0.00 58 1009.7
20260505041547 59 246 6.0 11.0 0.00 0.00 0.00 55 1009.7
20260505040010 59 229 3.0 9.0 0.00 0.00 0.00 54 1009.5
20260505034514 59 253 5.0 10.0 0.00 0.00 0.00 53 1009.5
20260505033057 60 242 4.0 12.0 0.00 0.00 0.00 52 1009.4
20260505031604 60 205 5.0 10.0 0.00 0.00 0.00 51 1009.4
20260505030052 60 213 4.0 9.0 0.00 0.00 0.00 51 1009.4
20260505024559 61 227 3.0 12.0 0.00 0.00 0.00 49 1009.3
20260505023047 61 194 3.0 8.0 0.00 0.00 0.00 49 1009.4
20260505021548 62 218 4.0 10.0 0.00 0.00 0.00 48 1009.4
20260505020044 62 213 5.0 11.0 0.00 0.00 0.00 47 1009.4
20260505014600 63 227 5.0 14.0 0.00 0.00 0.00 47 1009.2
20260505013020 63 186 4.0 13.0 0.00 0.00 0.00 46 1009.0
20260505011517 64 226 6.0 18.0 0.00 0.00 0.00 45 1008.6
20260505010056 64 264 5.0 18.0 0.00 0.00 0.00 44 1008.3
20260505004553 65 241 9.0 18.0 0.00 0.00 0.00 42 1007.9
20260505003038 66 214 8.0 16.0 0.00 0.00 0.00 41 1007.5
20260505001536 67 271 8.0 18.0 0.00 0.00 0.00 39 1007.0
20260505000044 69 206 2.0 8.0 0.00 0.00 0.00 34 1006.6
20260504234533 70 323 4.0 7.0 0.00 0.00 0.00 33 1006.4
20260504233025 70 230 3.0 8.0 0.00 0.00 0.00 32 1006.2
20260504231522 71 271 8.0 17.0 0.00 0.00 0.00 31 1005.9
20260504230021 72 224 6.0 15.0 0.00 0.00 0.00 31 1005.7
20260504224522 72 234 5.0 14.0 0.00 0.00 0.00 30 1005.6
20260504223003 72 254 7.0 17.0 0.00 0.00 0.00 29 1005.6
20260504221502 72 273 5.0 13.0 0.00 0.00 0.00 29 1005.5
20260504220045 72 261 6.0 13.0 0.00 0.00 0.00 29 1005.5
20260504214543 72 275 8.0 17.0 0.00 0.00 0.00 29 1005.5
20260504213037 72 273 7.0 18.0 0.00 0.00 0.00 29 1005.4
20260504211531 72 231 6.0 15.0 0.00 0.00 0.00 29 1005.5
20260504210006 73 271 6.0 16.0 0.00 0.00 0.00 28 1005.5
20260504204519 73 238 5.0 16.0 0.00 0.00 0.00 28 1005.5
20260504203003 73 236 7.0 16.0 0.00 0.00 0.00 27 1005.6
20260504201502 72 250 12.0 23.0 0.00 0.00 0.00 27 1005.6
20260504200125 72 239 11.0 21.0 0.00 0.00 0.00 27 1005.7
20260504194603 72 5 8.0 28.0 0.00 0.00 0.00 27 1005.6
20260504193057 71 319 8.0 22.0 0.00 0.00 0.00 27 1005.7
20260504191558 71 298 11.0 23.0 0.00 0.00 0.00 28 1005.7
20260504190053 71 259 12.0 30.0 0.00 0.00 0.00 28 1005.8
20260504184540 71 267 13.0 23.0 0.00 0.00 0.00 27 1006.0
20260504183038 70 325 11.0 26.0 0.00 0.00 0.00 27 1006.2
20260504181543 70 254 9.0 22.0 0.00 0.00 0.00 29 1006.2
20260504180037 69 257 7.0 23.0 0.00 0.00 0.00 29 1006.3
20260504174535 69 263 11.0 25.0 0.00 0.00 0.00 30 1006.3
20260504173036 68 224 11.0 26.0 0.00 0.00 0.00 30 1006.5
20260504171533 68 254 8.0 22.0 0.00 0.00 0.00 30 1006.6
20260504160108 66 291 13.0 26.0 0.00 0.00 0.00 32 1007.1